• In Deutschland
  • Länderverzeichnis
  • Für 7 Tage
  • Wassertemperatur
  • Satellitenkarten
  • Wetterkarte
  • Widgets
  • user-avatar
    Anmelden

    Stündliche Wetter Bad Homburg vor der Höhe

    Heute, 18 Juli, Mittwoch

    Zeit Temperatur Niederschläge Wind Luftdruck Luftfeuchtigkeit
    00:00 +19°C° 0 mm 2 m/S 739 mmHg 71%
    01:00 +18°C° 0 mm 2 m/S 739 mmHg 70%
    02:00 +18°C° 0 mm 1 m/S 739 mmHg 71%
    03:00 +16°C° 0 mm 1 m/S 739 mmHg 73%
    04:00 +16°C° 0 mm 1 m/S 739 mmHg 74%
    05:00 +16°C° 0 mm 1 m/S 739 mmHg 72%
    06:00 +18°C° 0 mm 1 m/S 740 mmHg 69%
    07:00 +20°C° 0 mm 1 m/S 740 mmHg 60%
    08:00 +22°C° 0 mm 1 m/S 740 mmHg 55%
    09:00 +23°C° 0 mm 2 m/S 740 mmHg 50%
    10:00 +24°C° 0 mm 2 m/S 740 mmHg 45%
    11:00 +25°C° 0 mm 2 m/S 740 mmHg 42%
    12:00 +26°C° 0 mm 2 m/S 740 mmHg 40%
    13:00 +27°C° 0 mm 2 m/S 740 mmHg 37%
    14:00 +27°C° 0 mm 2 m/S 740 mmHg 37%
    15:00 +27°C° 0 mm 2 m/S 740 mmHg 37%
    16:00 +28°C° 0 mm 2 m/S 740 mmHg 37%
    17:00 +27°C° 0 mm 2 m/S 740 mmHg 43%
    18:00 +26°C° 0 mm 2 m/S 739 mmHg 48%
    19:00 +25°C° 0 mm 2 m/S 739 mmHg 54%
    20:00 +23°C° 0 mm 2 m/S 740 mmHg 58%
    21:00 +20°C° 0 mm 2 m/S 740 mmHg 63%
    22:00 +18°C° 0 mm 2 m/S 740 mmHg 68%
    23:00 +18°C° 0 mm 2 m/S 740 mmHg 71%

    Morgen, 19 Juli, Donnerstag

    Zeit Temperatur Niederschläge Wind Luftdruck Luftfeuchtigkeit
    00:00 +18°C° 0 mm 1 m/S 740 mmHg 74%
    01:00 +16°C° 0 mm 1 m/S 740 mmHg 77%
    02:00 +16°C° 0 mm 1 m/S 740 mmHg 78%
    03:00 +15°C° 0 mm 1 m/S 740 mmHg 80%
    04:00 +15°C° 0 mm 1 m/S 740 mmHg 82%
    05:00 +16°C° 0 mm 1 m/S 740 mmHg 77%
    06:00 +18°C° 0 mm 1 m/S 740 mmHg 73%
    07:00 +19°C° 0 mm 1 m/S 740 mmHg 68%
    08:00 +21°C° 0 mm 1 m/S 740 mmHg 62%
    09:00 +23°C° 0 mm 1 m/S 741 mmHg 55%
    10:00 +25°C° 0 mm 1 m/S 741 mmHg 48%
    11:00 +26°C° 0 mm 1 m/S 740 mmHg 45%
    12:00 +27°C° 0 mm 1 m/S 740 mmHg 41%
    13:00 +28°C° 0 mm 1 m/S 740 mmHg 38%
    14:00 +28°C° 0 mm 1 m/S 740 mmHg 37%
    15:00 +28°C° 0 mm 1 m/S 740 mmHg 37%
    16:00 +28°C° 0 mm 1 m/S 739 mmHg 36%
    17:00 +27°C° 0 mm 2 m/S 739 mmHg 41%
    18:00 +26°C° 0 mm 2 m/S 739 mmHg 47%
    19:00 +25°C° 0 mm 2 m/S 739 mmHg 52%
    20:00 +23°C° 0 mm 2 m/S 739 mmHg 54%
    21:00 +21°C° 0 mm 2 m/S 739 mmHg 57%
    22:00 +19°C° 0 mm 2 m/S 739 mmHg 60%
    23:00 +19°C° 0 mm 2 m/S 739 mmHg 62%

    übermorgen, 20 Juli, Freitag

    Zeit Temperatur Niederschläge Wind Luftdruck Luftfeuchtigkeit
    00:00 +18°C° 0 mm 2 m/S 739 mmHg 63%
    01:00 +17°C° 0 mm 2 m/S 739 mmHg 65%
    02:00 +18°C° 0 mm 1 m/S 738 mmHg 67%
    03:00 +16°C° 0 mm 1 m/S 738 mmHg 69%
    04:00 +16°C° 0 mm 1 m/S 738 mmHg 71%
    05:00 +18°C° 0 mm 1 m/S 738 mmHg 69%
    06:00 +19°C° 0 mm 1 m/S 738 mmHg 66%
    07:00 +20°C° 0 mm 1 m/S 738 mmHg 64%
    08:00 +22°C° 0 mm 1 m/S 738 mmHg 58%
    09:00 +24°C° 0 mm 2 m/S 738 mmHg 52%
    10:00 +26°C° 0 mm 2 m/S 738 mmHg 45%
    11:00 +27°C° 0 mm 2 m/S 737 mmHg 44%
    12:00 +28°C° 0 mm 2 m/S 737 mmHg 42%
    13:00 +28°C° 0 mm 2 m/S 737 mmHg 40%
    14:00 +28°C° 0 mm 1 m/S 737 mmHg 43%
    15:00 +27°C° 0 mm 1 m/S 736 mmHg 47%
    16:00 +27°C° 0 mm 1 m/S 736 mmHg 51%
    17:00 +26°C° 0 mm 1 m/S 735 mmHg 54%
    18:00 +26°C° 0 mm 1 m/S 735 mmHg 56%
    19:00 +25°C° 0 mm 2 m/S 735 mmHg 58%
    20:00 +24°C° 0,4 mm 2 m/S 735 mmHg 64%
    21:00 +21°C° 0,4 mm 2 m/S 735 mmHg 70%
    22:00 +21°C° 0,4 mm 1 m/S 735 mmHg 75%
    23:00 +20°C° 0,6 mm 1 m/S 735 mmHg 77%

    21 Juli, Samstag

    Zeit Temperatur Niederschläge Wind Luftdruck Luftfeuchtigkeit
    00:00 +19°C° 0,6 mm 1 m/S 734 mmHg 79%
    01:00 +19°C° 0,6 mm 1 m/S 734 mmHg 81%
    02:00 +19°C° 0,2 mm 1 m/S 734 mmHg 82%
    03:00 +18°C° 0,2 mm 1 m/S 734 mmHg 84%
    04:00 +18°C° 0,2 mm 1 m/S 734 mmHg 85%
    05:00 +18°C° 0 mm 1 m/S 734 mmHg 84%
    06:00 +19°C° 0 mm 1 m/S 734 mmHg 84%
    07:00 +19°C° 0 mm 1 m/S 735 mmHg 83%
    08:00 +21°C° 0 mm 1 m/S 735 mmHg 76%
    09:00 +23°C° 0 mm 2 m/S 735 mmHg 69%
    10:00 +24°C° 0 mm 2 m/S 735 mmHg 63%
    11:00 +25°C° 0,4 mm 2 m/S 735 mmHg 62%
    12:00 +26°C° 0,4 mm 3 m/S 735 mmHg 62%
    13:00 +26°C° 0,4 mm 3 m/S 735 mmHg 61%
    14:00 +26°C° 0,8 mm 3 m/S 735 mmHg 63%
    15:00 +26°C° 0,8 mm 3 m/S 735 mmHg 65%
    16:00 +26°C° 0,8 mm 3 m/S 735 mmHg 67%
    17:00 +25°C° 0,5 mm 3 m/S 735 mmHg 69%
    18:00 +24°C° 0,5 mm 3 m/S 735 mmHg 71%
    19:00 +24°C° 0,5 mm 2 m/S 735 mmHg 73%
    20:00 +23°C° 0,1 mm 2 m/S 735 mmHg 76%
    21:00 +20°C° 0,1 mm 2 m/S 736 mmHg 78%
    22:00 +20°C° 0,1 mm 1 m/S 736 mmHg 81%
    23:00 +19°C° 0 mm 1 m/S 736 mmHg 83%

    22 Juli, Sonntag

    Zeit Temperatur Niederschläge Wind Luftdruck Luftfeuchtigkeit
    00:00 +18°C° 0 mm 2 m/S 736 mmHg 84%
    01:00 +17°C° 0 mm 2 m/S 736 mmHg 86%
    02:00 +17°C° 0 mm 2 m/S 736 mmHg 87%
    03:00 +16°C° 0 mm 1 m/S 736 mmHg 88%
    04:00 +16°C° 0 mm 1 m/S 736 mmHg 90%
    05:00 +16°C° 0 mm 1 m/S 737 mmHg 87%
    06:00 +17°C° 0 mm 2 m/S 737 mmHg 85%
    07:00 +18°C° 0 mm 2 m/S 737 mmHg 82%
    08:00 +20°C° 0 mm 2 m/S 737 mmHg 73%
    09:00 +21°C° 0 mm 2 m/S 738 mmHg 63%
    10:00 +24°C° 0 mm 3 m/S 738 mmHg 54%
    11:00 +25°C° 0 mm 3 m/S 738 mmHg 51%
    12:00 +26°C° 0 mm 3 m/S 738 mmHg 48%
    13:00 +27°C° 0 mm 3 m/S 738 mmHg 45%
    14:00 +27°C° 0 mm 3 m/S 737 mmHg 45%
    15:00 +27°C° 0 mm 3 m/S 737 mmHg 46%
    16:00 +27°C° 0 mm 3 m/S 737 mmHg 46%
    17:00 +26°C° 0 mm 3 m/S 737 mmHg 50%
    18:00 +25°C° 0 mm 2 m/S 737 mmHg 55%
    19:00 +24°C° 0 mm 2 m/S 738 mmHg 59%
    20:00 +23°C° 0 mm 2 m/S 738 mmHg 64%
    21:00 +21°C° 0 mm 1 m/S 738 mmHg 69%
    22:00 +19°C° 0 mm 1 m/S 739 mmHg 74%
    23:00 +19°C° 0 mm 1 m/S 739 mmHg 76%

    23 Juli, Montag

    Zeit Temperatur Niederschläge Wind Luftdruck Luftfeuchtigkeit
    00:00 +18°C° 0 mm 1 m/S 739 mmHg 78%
    01:00 +18°C° 0 mm 1 m/S 739 mmHg 80%
    02:00 +16°C° 0 mm 1 m/S 739 mmHg 81%
    03:00 +15°C° 0 mm 0 m/S 739 mmHg 82%
    04:00 +15°C° 0 mm 0 m/S 739 mmHg 83%
    05:00 +16°C° 0 mm 0 m/S 739 mmHg 79%
    06:00 +17°C° 0 mm 0 m/S 739 mmHg 75%
    07:00 +18°C° 0 mm 0 m/S 740 mmHg 71%
    08:00 +20°C° 0 mm 0 m/S 740 mmHg 64%
    09:00 +22°C° 0 mm 0 m/S 740 mmHg 57%
    10:00 +24°C° 0 mm 0 m/S 740 mmHg 50%
    11:00 +25°C° 0 mm 0 m/S 740 mmHg 47%
    12:00 +27°C° 0 mm 0 m/S 739 mmHg 44%
    13:00 +30°C° 0 mm 1 m/S 739 mmHg 41%
    14:00 +30°C° 0 mm 1 m/S 739 mmHg 41%
    15:00 +30°C° 0 mm 1 m/S 739 mmHg 41%
    16:00 +30°C° 0 mm 1 m/S 739 mmHg 40%
    17:00 +29°C° 0 mm 1 m/S 739 mmHg 45%
    18:00 +28°C° 0 mm 1 m/S 738 mmHg 50%
    19:00 +27°C° 0 mm 1 m/S 738 mmHg 54%
    20:00 +25°C° 0 mm 1 m/S 738 mmHg 58%
    21:00 +23°C° 0 mm 1 m/S 739 mmHg 62%
    22:00 +22°C° 0 mm 1 m/S 739 mmHg 66%
    23:00 +21°C° 0 mm 1 m/S 739 mmHg 69%
    Mehr zeigen